Miscellaneous Local Product
Issued by NWS North Platte, NE

Home | Current Version | Previous Version | Text Only | Print | Product List | Glossary On
Versions: 1 2 3 4 5 6 7 8 9 10 11 12 13 14 15 16 17 18 19 20 21 22 23 24 25 26 27 28 29 30 31 32 33 34 35 36 37 38 39 40 41 42 43 44 45 46 47 48 49 50
255
AXUS43 KLBF 241610
MISLBF


WESTERN AND NORTH CENTRAL NEBRASKA HOURLY WEATHER ROUNDUP
NATIONAL WEATHER SERVICE NORTH PLATTE NE
1100 AM CDT TUE MAY 24 2016

NOTE: "FAIR" INDICATES FEW OR NO CLOUDS BELOW 12,000 FEET WITH NO
SIGNIFICANT WEATHER AND/OR OBSTRUCTIONS TO VISIBILITY.

NOTE: STATIONS NOT REPORTING VARIABLES SUCH AS SKY/WEATHER OR
PRESSURE ARE PROVIDED BY RAWS AND APRS NETWORKS AND ARE NOT UNDER
NATIONAL WEATHER SERVICE QUALITY CONTROL.

...OBSERVATIONS IN AND NEAR THE EASTERN PANHANDLE OF NEBRASKA...

CITY           SKY/WX    TMP DP  RH WIND       PRES   REMARKS
PINE RIDGE     SUNNY     65  41  41 CALM      29.92S
CHADRON        SUNNY     65  40  39 NE7       29.92F
ALLIANCE       PTSUNNY   66  47  50 SE6       29.93F
SIDNEY         SUNNY     65  44  46 S8        29.96S
CRESCENT LAKE    N/A     69  43  39 S6          N/A
BIG SPRINGS      N/A     57  48  73 W3          N/A
$$

...OBSERVATIONS IN NORTHERN NEBRASKA AND FAR SOUTHERN SOUTH DAKOTA...

CITY           SKY/WX    TMP DP  RH WIND       PRES   REMARKS
WINNER         FAIR      70  49  47 W6        29.88S
VALENTINE      SUNNY     70  43  37 CALM      29.91S
THEDFORD       MOSUNNY   72  44  36 S7        29.94R
AINSWORTH      SUNNY     72  40  32 CALM      29.91S
O`NEILL        SUNNY     74  46  35 CALM      29.89R
ORD            SUNNY     72  55  55 S5        29.89R
BROKEN BOW     CLOUDY    74  55  51 CALM      29.92R
BUTTE            N/A     74  49  41 SE3         N/A
CHAMBERS         N/A     79  56  44 E3          N/A
EWING            N/A     74  60  61 CALM        N/A
$$

...OBSERVATIONS IN SOUTHWEST NEBRASKA AND FAR NORTHEAST COLORADO...

CITY           SKY/WX    TMP DP  RH WIND       PRES   REMARKS
WRAY           FAIR      68  54  60 SE14      29.95S
HOLYOKE        FAIR      72  52  49 SE9       29.95S
IMPERIAL       SUNNY     67  54  63 SE10      29.93F
OGALLALA       CLOUDY    64  46  52 CALM      29.94F
NORTH PLATTE   CLOUDY    69  55  60 W5        29.92S
MCCOOK         SUNNY     70  58  65 SE13      29.93R
LEXINGTON      SUNNY     71  60  67 S9G16     29.92S
PAXTON           N/A     55  51  88 CALM        N/A
STAPLETON        N/A     67  51  56 CALM        N/A
GOTHENBURG       N/A     67  50  54 CALM        N/A
CALLAWAY         N/A     74  53  47 S5          N/A
$$

...OBSERVATIONS IN CENTRAL LINCOLN COUNTY AREA...

CITY           SKY/WX    TMP DP  RH WIND       PRES   REMARKS
N.P. AIRPORT   CLOUDY    69  55  60 W5        29.92S
N.P. DOWNTOWN    N/A     66  53  62 CALM        N/A
N.P. SOUTHEAST   N/A     67  52  57 CALM        N/A
N.P. HILLCREST   N/A     63  54  72 CALM        N/A
$$

...SOME OBSERVATIONS FROM AROUND THE REGION...

CITY           SKY/WX    TMP DP  RH WIND       PRES   REMARKS
DENVER         MOSUNNY   63  45  51 SE17      29.97F
LARAMIE        SUNNY     58  39  49 S24       29.97F
CHEYENNE       MOSUNNY   57  42  57 S23G29    29.99R
SCOTTSBLUFF    PTSUNNY   62  45  53 SE5       29.94F
RAPID CITY     SUNNY     64  41  42 E5        29.92F
BISMARCK       SUNNY     69  47  45 CALM      29.89S
PIERRE         SUNNY     67  51  56 CALM      29.86R
SIOUX FALLS    CLOUDY    71  61  70 S5        29.87R
OMAHA          CLOUDY    69  64  84 VRB3      29.88F
GRAND ISLAND   SUNNY     74  57  55 SW8       29.90R
KANSAS CITY    CLOUDY    67  63  87 W7        29.99S
WICHITA        CLOUDY    69  63  81 E12       29.95S
OKLAHOMA CITY  MOSUNNY   82  70  66 S17G28    29.90R
DALLAS         LGT RAIN  76  72  87 SE12      29.97S FOG
AMARILLO       SUNNY     78  62  57 S17       29.92S
DODGE CITY     CLOUDY    66  64  93 E17G23    29.90S
HAYS           CLOUDY    66  52  59 SE20G25   29.92F
GOODLAND       CLOUDY    64  55  72 SE16      29.93F
$$




USA.gov is the U.S. government's official web portal to all federal, state and local government web resources and services.